KC5EZZ-13 Weather Reports


time (UTC)temp
C
wind
direction
speed
KPH
gust
KPH
rain 1hr
cm
rain 24hr
cm
rain mn
cm
humidity
%
barometer
mb
20260906230107 35 127 14.5 25.7 0.00 0.00 0.00 41 1012.7
20260906224601 35 144 11.3 16.1 0.00 0.00 0.00 41 1012.7
20260906223107 35 146 9.7 16.1 0.00 0.00 0.00 41 1012.8
20260906221611 34 186 8.0 14.5 0.00 0.00 0.00 41 1012.9
20260906220105 34 133 8.0 16.1 0.00 0.00 0.00 41 1013.1
20260906214606 34 141 9.7 19.3 0.00 0.00 0.00 41 1013.0
20260906213058 34 155 14.5 19.3 0.00 0.00 0.00 41 1013.2
20260906211606 35 167 12.9 27.4 0.00 0.00 0.00 41 1013.1
20260906210109 36 108 17.7 29.0 0.00 0.00 0.00 42 1013.4
20260906204620 35 146 9.7 25.7 0.00 0.00 0.00 42 1013.6
20260906203105 36 127 14.5 20.9 0.00 0.00 0.00 43 1013.7
20260906201603 35 110 11.3 20.9 0.00 0.00 0.00 44 1014.0
20260906200105 35 98 11.3 20.9 0.00 0.00 0.00 45 1014.1
20260906194608 35 80 4.8 20.9 0.00 0.00 0.00 46 1014.1
20260906193101 36 286 11.3 20.9 0.00 0.00 0.00 47 1014.4
20260906191613 36 135 0.0 19.3 0.00 0.00 0.00 48 1014.4
20260906190104 35 148 8.0 22.5 0.00 0.00 0.00 49 1014.6
20260906184620 34 185 11.3 27.4 0.00 0.00 0.00 50 1014.7
20260906183114 34 77 14.5 24.1 0.00 0.00 0.00 52 1015.1
20260906181613 34 75 9.7 20.9 0.00 0.00 0.00 53 1015.1
20260906180132 35 59 12.9 20.9 0.00 0.00 0.00 55 1015.2
20260906174628 35 162 3.2 16.1 0.00 0.00 0.00 56 1015.5
20260906173059 34 58 8.0 20.9 0.00 0.00 0.00 58 1015.8
20260906171618 33 63 9.7 17.7 0.00 0.00 0.00 60 1015.9
20260906170119 33 175 6.4 11.3 0.00 0.00 0.00 61 1016.2
20260906164602 34 115 3.2 11.3 0.00 0.00 0.00 63 1016.3
20260906163114 32 325 1.6 9.7 0.00 0.00 0.00 64 1016.4
20260906161624 33 197 3.2 8.0 0.00 0.00 0.00 65 1016.4
20260906160106 33 150 1.6 8.0 0.00 0.00 0.00 67 1016.2
20260906154605 32 155 1.6 6.4 0.00 0.00 0.00 68 1016.5
20260906153129 30 86 3.2 4.8 0.00 0.00 0.00 68 1016.4
20260906151604 30 182 3.2 6.4 0.00 0.00 0.00 69 1016.1
20260906150110 28 195 3.2 4.8 0.00 0.00 0.00 69 1016.1
20260906144608 28 202 1.6 4.8 0.00 0.00 0.00 70 1016.1
20260906143106 29 186 0.0 4.8 0.00 0.00 0.00 70 1016.0
20260906141622 28 0 1.6 4.8 0.00 0.00 0.00 69 1015.8
20260906134606 25 105 1.6 3.2 0.00 0.00 0.00 68 1015.9
20260906133111 23 0 0.0 0.0 0.00 0.00 0.00 68 1015.8
20260906131610 22 0 0.0 0.0 0.00 0.00 0.00 67 1015.7
20260906130109 23 0 0.0 0.0 0.00 0.00 0.00 67 1015.5
20260906124609 22 0 0.0 0.0 0.00 0.00 0.00 66 1015.4
20260906123109 21 0 0.0 0.0 0.00 0.00 0.00 65 1015.2
20260906121614 21 0 0.0 0.0 0.00 0.00 0.00 65 1015.0
20260906120108 22 0 0.0 0.0 0.00 0.00 0.00 64 1015.0
20260906114604 22 0 0.0 0.0 0.00 0.00 0.00 64 1014.7
20260906113105 22 0 0.0 0.0 0.00 0.00 0.00 63 1014.7
20260906111601 22 0 0.0 0.0 0.00 0.00 0.00 62 1014.6
20260906110058 21 0 0.0 0.0 0.00 0.00 0.00 62 1014.5
20260906104608 22 0 0.0 0.0 0.00 0.00 0.00 61 1014.4
20260906103104 22 0 0.0 0.0 0.00 0.00 0.00 61 1014.4
20260906101609 22 0 0.0 0.0 0.00 0.00 0.00 60 1014.4
20260906100059 22 0 0.0 0.0 0.00 0.00 0.00 59 1014.4
20260906094606 22 0 0.0 0.0 0.00 0.00 0.00 59 1014.2
20260906093103 22 0 0.0 0.0 0.00 0.00 0.00 58 1014.1
20260906091604 23 0 0.0 0.0 0.00 0.00 0.00 57 1014.1
20260906090104 23 0 0.0 0.0 0.00 0.00 0.00 57 1014.0
20260906084605 23 0 0.0 0.0 0.00 0.00 0.00 56 1014.1
20260906083104 23 0 0.0 0.0 0.00 0.00 0.00 55 1014.2
20260906081606 23 0 0.0 0.0 0.00 0.00 0.00 55 1014.2
20260906080106 24 0 0.0 0.0 0.00 0.00 0.00 54 1014.2
20260906074604 24 0 0.0 0.0 0.00 0.00 0.00 53 1014.2
20260906073102 24 0 0.0 1.6 0.00 0.00 0.00 53 1014.3
20260906071600 25 0 0.0 1.6 0.00 0.00 0.00 52 1014.5
20260906070108 26 139 0.0 1.6 0.00 0.00 0.00 51 1014.4
20260906064604 26 131 3.2 6.4 0.00 0.00 0.00 50 1014.6
20260906063106 26 132 3.2 4.8 0.00 0.00 0.00 50 1014.7
20260906061606 26 134 1.6 3.2 0.00 0.00 0.00 49 1014.9
20260906060136 26 149 0.0 1.6 0.00 0.00 0.00 49 1014.7
20260906054616 26 0 0.0 1.6 0.00 0.00 0.00 48 1014.8
20260906053105 26 186 0.0 3.2 0.00 0.00 0.00 47 1014.8
20260906051607 26 0 0.0 0.0 0.00 0.00 0.00 47 1014.9
20260906050107 27 104 3.2 4.8 0.00 0.00 0.00 46 1015.0
20260906044601 27 196 1.6 1.6 0.00 0.00 0.00 45 1014.7
20260906043104 28 143 1.6 3.2 0.00 0.00 0.00 45 1014.5
20260906041607 28 146 3.2 4.8 0.00 0.00 0.00 44 1014.5
20260906040109 28 151 4.8 8.0 0.00 0.00 0.00 44 1014.4
20260906034607 28 153 4.8 8.0 0.00 0.00 0.00 43 1014.6
20260906033106 28 135 4.8 8.0 0.00 0.00 0.00 42 1014.5
20260906031602 28 150 4.8 9.7 0.00 0.00 0.00 41 1014.2
20260906030106 28 148 3.2 6.4 0.00 0.00 0.00 41 1014.0
20260906024618 29 136 3.2 4.8 0.00 0.00 0.00 40 1013.7
20260906023107 30 118 1.6 6.4 0.00 0.00 0.00 40 1013.4
20260906021606 30 137 1.6 8.0 0.00 0.00 0.00 39 1013.2
20260906020114 30 91 3.2 6.4 0.00 0.00 0.00 39 1013.0
20260906014612 31 113 3.2 8.0 0.00 0.00 0.00 38 1012.8
20260906013108 31 103 4.8 8.0 0.00 0.00 0.00 38 1012.7
20260906011607 32 127 4.8 11.3 0.00 0.00 0.00 38 1012.7
20260906010146 32 118 8.0 14.5 0.00 0.00 0.00 37 1012.5
20260906004617 33 89 11.3 22.5 0.00 0.00 0.00 37 1012.4
20260906003105 33 120 11.3 20.9 0.00 0.00 0.00 37 1012.2
20260906001608 34 87 14.5 20.9 0.00 0.00 0.00 36 1012.1
20260906000105 35 99 12.9 24.1 0.00 0.00 0.00 36 1012.0
20260905234604 35 109 16.1 22.5 0.00 0.00 0.00 36 1012.0
20260905233103 35 88 16.1 22.5 0.00 0.00 0.00 37 1011.9
20260905231612 36 96 9.7 17.7 0.00 0.00 0.00 37 1011.8